FENGYUN 1C DEB, 31471

Orbit data source: Space-Track

FENGYUN 1C DEB, 31471 is space debris in SSO originally from a launch on Mon, 10 May 1999 UTC launched from the Taiyaun Space Center, China (TSC). Fengyun 1C debris stems from the Chinese weather satellite Fengyun-1C, which was intentionally destroyed by a Chinese anti-satellite missile in 2007. This event dramatically increased the amount of space debris, with thousands of trackable fragments posing hazards to satellites and human spaceflight. The Fengyun 1C debris cloud has become a focal point in discussions about space sustainability and the need for international regulations to prevent the creation of new debris.

Loading next visibility...
Identifier
31471, 1999-025BVK
Orbit
SSO
Country
Flag of CNCN / PRC
Related business
Manufacturer
Unknown
Mission
Spacecraft
Bus & Motor
Unknown
Mass
Unknown
Launch date (UTC)
1999-05-10 (27 years ago)
Launch vehicle
Unknown
Launch site
Taiyaun Space Center, China (TSC)
Object type
Payload
Rocket body
Debris
Shape & HBR
Unknown shape, 1.1 m
Radar Cross Section
Medium (>0.1 m² and <1 m²)

Expand to show TLE details & history
Last TLE update: 1 week ago

TLE from 1 week ago
0 FENGYUN 1C DEB
1 31471U 99025BVK 26163.43993272  .00002819  00000-0  12955-2 0  9992
2 31471  97.9668  33.1860 0144360 185.4558 174.5053 14.16498271665485
Epoch: 2026-06-12T10:33Z
TLE epoch observation values (Epoch: 2026-06-12T10:33:30.187Z)
Latitude
-0.00007°
Longitude
-25.95912°
Altitude
943.869 km
Speed
7.327 km/s
True Right ascension
02h 12m 44s
True Declination
0° 00' 00"
Sunlit
Object was in daylight at epoch
Visualization orbit readout
Latitude
Unknown
Longitude
Unknown
Altitude
Unknown
Speed
Unknown
Apparent Right ascension
Unknown
Apparent Declination
Unknown
Sunlit
N/A
Visualization observer readout
Local Sidereal Time
10:29:26
Azimuth
Unknown
Elevation
Unknown
Doppler factor
Unknown
Orbital elements
Apogee altitude
938.468 km
Perigee altitude
730.229 km
Semi-major axis
7,212.485 km
Eccentricity
0.01444
Inclination
97.9668°
RAAN
33.186°
Arg. of periapsis
185.4558°
True anomaly
174.6609°
Mean anomaly
174.5053°
Eccentric anomaly
174.58338°
Mean motion
3.54336 °/min
Orbital period
101.6 mins
BSTAR
0.0012955
Loading maneuver chart data...
Computing Atmospheric mass density...

Documentation

Showing up to 5 results
|